History for Dal, Finland on Wednesday, October 6, 2004

Jump to data by:

Latest visited Airport Codes: DAL

Data type:
 

« Previous Day | Next Day »

 
Daily Summary
Actual Average (EFTU) Record (EFTU)
Temperature
Mean Temperature 50 °F -  
Max Temperature 53 °F 50 °F 60 °F (2000)
Min Temperature 48 °F 40 °F 24 °F (1998)
Degree Days
Heating Degree Days 14    
Moisture
Dew Point 49 °F    
Average Humidity 95    
Maximum Humidity 100    
Minimum Humidity 87    
Precipitation
Precipitation 0.00 in - - ()
Sea Level Pressure
Sea Level Pressure 29.70 in    
Wind
Wind Speed 4 mph ()    
Max Wind Speed 12 mph    
Max Gust Speed -    
Visibility 5.9 miles    
Events Rain   
Averages and records for this station are not official NWS values.
Key: T is trace of precipitation, MM is missing value
Source: Averaged Metar Reports
Seasonal Weather Averages
Time (EEST) Temp. Dew Point Humidity Sea Level Pressure Visibility Wind Direction Wind Speed Gust Speed Precip. Events Conditions
1:20 AM 51.8 °F 51.8 °F 100% 29.74 in 5.0 miles Calm Calm - N/A   Mostly Cloudy
1:50 AM 51.8 °F 51.8 °F 100% 29.74 in 5.0 miles SE 1.2 mph - N/A   Mostly Cloudy
3:50 AM 51.8 °F 50.0 °F 94% 29.74 in 6.2 miles SW 4.6 mph - N/A   Mostly Cloudy
4:20 AM 51.8 °F 50.0 °F 94% 29.74 in 6.2 miles WSW 4.6 mph - N/A   Mostly Cloudy
4:50 AM 50.0 °F 50.0 °F 100% 29.74 in 6.2 miles WSW 5.8 mph - N/A   Scattered Clouds
5:20 AM 50.0 °F 48.2 °F 94% 29.71 in 6.2 miles West 2.3 mph - N/A   Mostly Cloudy
5:50 AM 48.2 °F 48.2 °F 100% 29.71 in 2.5 miles SW 3.5 mph - N/A   Mostly Cloudy
6:20 AM 50.0 °F 48.2 °F 94% 29.71 in 4.3 miles WSW 2.3 mph - N/A   Mostly Cloudy
6:50 AM 50.0 °F 50.0 °F 100% 29.71 in 4.3 miles SW 3.5 mph - N/A   Mostly Cloudy
7:20 AM 50.0 °F 48.2 °F 94% 29.74 in 4.3 miles SW 4.6 mph - N/A   Scattered Clouds
7:50 AM 48.2 °F 48.2 °F 100% 29.71 in 6.2 miles SW 4.6 mph - N/A   Mostly Cloudy
8:20 AM 48.2 °F 46.4 °F 93% 29.71 in 6.2 miles SW 3.5 mph - N/A   Mostly Cloudy
8:50 AM 48.2 °F 48.2 °F 100% 29.74 in 6.2 miles SSW 3.5 mph - N/A   Scattered Clouds
9:20 AM 48.2 °F 48.2 °F 100% 29.71 in 6.2 miles SW 3.5 mph - N/A   Scattered Clouds
9:50 AM 50.0 °F 48.2 °F 94% 29.71 in 6.2 miles SSW 4.6 mph - N/A   Scattered Clouds
10:20 AM 50.0 °F 48.2 °F 94% 29.74 in 6.2 miles South 3.5 mph - N/A   Mostly Cloudy
10:50 AM 50.0 °F 48.2 °F 94% 29.74 in 6.2 miles South 4.6 mph - N/A   Mostly Cloudy
11:20 AM 50.0 °F 48.2 °F 94% 29.74 in 6.2 miles SSW 4.6 mph - N/A   Mostly Cloudy
11:50 AM 50.0 °F 48.2 °F 94% 29.71 in 6.2 miles South 4.6 mph - N/A   Mostly Cloudy
12:20 PM 50.0 °F 48.2 °F 94% 29.71 in 6.2 miles South 5.8 mph - N/A Rain Light Rain
12:50 PM 51.8 °F 48.2 °F 88% 29.71 in 6.2 miles South 4.6 mph - N/A   Mostly Cloudy
1:20 PM 51.8 °F 48.2 °F 88% 29.68 in 6.2 miles SE 2.3 mph - N/A Rain Light Rain
1:50 PM 51.8 °F 50.0 °F 94% 29.71 in 6.2 miles SSE 5.8 mph - N/A   Mostly Cloudy
2:20 PM 51.8 °F 50.0 °F 94% 29.68 in 6.2 miles SSE 4.6 mph - N/A   Mostly Cloudy
2:50 PM 51.8 °F 50.0 °F 94% 29.68 in 6.2 miles SE 3.5 mph - N/A Rain Light Rain
3:20 PM 51.8 °F 50.0 °F 94% 29.68 in 6.2 miles SSE 4.6 mph - N/A   Mostly Cloudy
3:50 PM 51.8 °F 50.0 °F 94% 29.65 in 6.2 miles SE 4.6 mph - N/A   Mostly Cloudy
4:20 PM 51.8 °F 51.8 °F 100% 29.65 in 6.2 miles SSE 3.5 mph - N/A   Mostly Cloudy
4:53 PM 51.8 °F 51.8 °F 100% 29.65 in 6.2 miles South 3.5 mph - N/A   Mostly Cloudy
5:20 PM 53.6 °F 51.8 °F 94% 29.65 in 6.2 miles SSW 3.5 mph - N/A   Mostly Cloudy
5:50 PM 53.6 °F 51.8 °F 94% 29.65 in 6.2 miles SSW 3.5 mph - N/A   Mostly Cloudy
6:26 PM 53.6 °F 50.0 °F 88% 29.65 in 6.2 miles WSW 6.9 mph - N/A   Mostly Cloudy
6:50 PM 50.0 °F 48.2 °F 94% 29.68 in 6.2 miles WSW 4.6 mph - N/A   Mostly Cloudy
7:20 PM 51.8 °F 50.0 °F 94% 29.68 in 6.2 miles SSW 4.6 mph - N/A   Mostly Cloudy
7:50 PM 51.8 °F 50.0 °F 94% 29.68 in 6.2 miles WSW 6.9 mph - N/A   Mostly Cloudy
8:20 PM 50.0 °F 50.0 °F 100% 29.68 in 6.2 miles SW 5.8 mph - N/A   Mostly Cloudy
8:50 PM 51.8 °F 48.2 °F 88% 29.68 in 6.2 miles WSW 6.9 mph - N/A   Mostly Cloudy
9:20 PM 50.0 °F 46.4 °F 87% 29.68 in 6.2 miles SSW 11.5 mph - N/A   Mostly Cloudy
9:50 PM 50.0 °F 46.4 °F 87% 29.71 in 6.2 miles SW 6.9 mph - N/A   Mostly Cloudy
10:20 PM 50.0 °F 48.2 °F 94% 29.71 in 6.2 miles SW 6.9 mph - N/A   Mostly Cloudy
10:50 PM 50.0 °F 48.2 °F 94% 29.71 in 6.2 miles SW 6.9 mph - N/A   Mostly Cloudy
11:20 PM 50.0 °F 48.2 °F 94% 29.71 in 6.2 miles SSW 6.9 mph - N/A   Mostly Cloudy
11:50 PM 51.8 °F 50.0 °F 94% 29.68 in 6.2 miles SSW 8.1 mph - N/A   Scattered Clouds

Powered by the Weather Underground, Inc.